User: anonymous   Login
Location: Unspecified
(0.0000°N, 0.0000°E)
Time: 07:45:33
(UTC+00:00)
Language:

Ayame - Orbit

View from above orbital plane
View from above orbital plane
View from above satellite
View from above satellite

Ground track
Ground track

The orbit data is extracted from the following two-line orbital elements,

1 11261U 79009A   18112.62363319 -.00000080 +00000-0 +00000-0 0  9991
2 11261 008.3976 106.5471 3686122 161.3322 014.0199 01.68578617125951
Epoch (UTC): 22 April 2018 14:58:01
Eccentricity: 0.3686122
inclination: 8.3976°
perigee height: 12451 km
apogee height: 34436 km
right ascension of ascending node: 106.5471°
argument of perigee: 161.3322°
revolutions per day: 1.68578617
mean anomaly at epoch: 14.0199°
orbit number at epoch: 12595

The dashed part of the orbit path shows where the satellite is in the earth's shadow,  

DLR